Weather History for Trinidad, CO

Change the Weather History Date:

Sunday, March 25, 2012

  Actual Average Record
Temperature  
Mean Temperature 60 °F 44 °F  
Max Temperature 85 °F 60 °F 85 °F (2012)
Min Temperature 35 °F 29 °F 5 °F (2013)
Degree Days  
Heating Degree Days 5 21  
Month to date heating degree days 467 587  
Since 1 July heating degree days 4243 4709  
Cooling Degree Days 0 0  
Month to date cooling degree days 0 0  
Year to date cooling degree days 0 0  
Growing Degree Days 12 (Base 50)    
Moisture  
Dew Point 18 °F    
Average Humidity 25    
Maximum Humidity 44    
Minimum Humidity 5    
Precipitation  
Precipitation 0.00 in 0.03 in 0.34 in (1997)
Month to date precipitation 0.29 0.70  
Year to date precipitation 1.59  
Snow  
Snow 0.00 in - - ()
Month to date snowfall 0.0  
Snow Depth 0.00 in    
Sea Level Pressure  
Sea Level Pressure 29.87 in    
Wind  
Wind Speed 11 mph (SW)    
Max Wind Speed 33 mph    
Max Gust Speed 41 mph    
Visibility 10 miles    
Events      
T = Trace of Precipitation, MM = Missing Value Source: NWS Daily Summary

Daily Weather History Graph

Daily Weather History Graph

Search for Another Location

Airport:

Trip Planner

Search our weather history database for the weather conditions in past years. The results will help you decide how hot, cold, wet, or windy it might be!

Date:

Astronomy

Mar. 25, 2012 Rise Set
Actual Time 6:52 AM MDT 7:14 PM MDT
Civil Twilight 6:26 AM MDT 7:40 PM MDT
Nautical Twilight 5:55 AM MDT 8:10 PM MDT
Astronomical Twilight 5:24 AM MDT 8:42 PM MDT
Moon 8:11 AM MDT (3/25) 10:26 PM MDT (3/25)
Length of Visible Light 13h 13m
Length of Day
12h 21m
Waxing Crescent, 9% of the Moon is Illuminated
Mar 25
Waxing Crescent
Mar 30
First Quarter
Apr 6
Full
Apr 13
Last Quarter
Apr 21
New

Hourly Weather History & Observations

Time (MDT) Temp. Windchill Dew Point Humidity Pressure Visibility Wind Dir Wind Speed Gust Speed Precip Events Conditions
12:54 AM 48.0 °F - 19.9 °F 33% 29.88 in 10.0 mi WSW 13.8 mph - N/A   Clear
1:54 AM 46.9 °F - 19.9 °F 34% 29.89 in 10.0 mi WSW 11.5 mph - N/A   Clear
2:54 AM 45.0 °F 38.5 °F 19.9 °F 37% 29.89 in 10.0 mi WSW 13.8 mph - N/A   Clear
3:54 AM 46.0 °F 39.6 °F 19.0 °F 34% 29.88 in 10.0 mi WSW 15.0 mph - N/A   Clear
4:54 AM 44.1 °F 37.4 °F 19.9 °F 38% 29.89 in 10.0 mi West 13.8 mph - N/A   Clear
5:54 AM 43.0 °F 36.8 °F 19.9 °F 40% 29.94 in 10.0 mi West 11.5 mph - N/A   Clear
6:54 AM 39.9 °F 34.5 °F 19.9 °F 45% 29.96 in 10.0 mi WNW 8.1 mph - N/A   Clear
7:54 AM 45.0 °F 42.6 °F 21.9 °F 40% 29.99 in 10.0 mi SSW 4.6 mph - N/A   Clear
8:54 AM 55.9 °F - 19.9 °F 25% 29.98 in 10.0 mi Calm Calm - N/A   Clear
9:54 AM 62.1 °F - 21.9 °F 21% 29.95 in 10.0 mi SSE 6.9 mph - N/A   Clear
10:54 AM 66.9 °F - 19.9 °F 17% 29.93 in 10.0 mi ESE 11.5 mph - N/A   Clear
11:54 AM 73.0 °F - 27.0 °F 18% 29.89 in 10.0 mi ESE 10.4 mph - N/A   Clear
12:54 PM 78.1 °F - 15.1 °F 9% 29.83 in 10.0 mi ESE 5.8 mph 18.4 mph N/A   Clear
1:51 PM 82.4 °F - 10.4 °F 7% 30.00 in 10.0 mi South 19.6 mph 27.6 mph N/A   Clear
1:54 PM 81.0 °F - 10.0 °F 7% 29.79 in 10.0 mi South 16.1 mph 27.6 mph N/A   Clear
2:30 PM 84.2 °F - 10.4 °F 6% 29.97 in 10.0 mi South 17.3 mph 35.7 mph N/A   Clear
2:54 PM 82.0 °F - 6.1 °F 6% 29.77 in 10.0 mi SW 19.6 mph 27.6 mph N/A   Clear
3:54 PM 80.1 °F - 10.0 °F 7% 29.77 in 10.0 mi SW 16.1 mph 21.9 mph N/A   Clear
4:54 PM 80.1 °F - 15.1 °F 9% 29.79 in 10.0 mi South 21.9 mph 34.5 mph N/A   Clear
5:54 PM 75.0 °F - 17.1 °F 11% 29.81 in 10.0 mi SSW 12.7 mph 21.9 mph N/A   Clear
6:54 PM 71.1 °F - 19.0 °F 14% 29.83 in 10.0 mi WSW 11.5 mph - N/A   Clear
7:54 PM 63.0 °F - 21.0 °F 20% 29.85 in 10.0 mi SW 9.2 mph - N/A   Clear
8:54 PM 60.1 °F - 21.9 °F 23% 29.83 in 10.0 mi SW 10.4 mph - N/A   Clear
9:54 PM 66.0 °F - 19.9 °F 17% 29.81 in 10.0 mi SSW 11.5 mph - N/A   Mostly Cloudy
10:54 PM 64.9 °F - 21.9 °F 19% 29.78 in 10.0 mi WSW 12.7 mph - N/A   Clear
11:54 PM 60.1 °F - 21.9 °F 23% 29.77 in 10.0 mi WSW 5.8 mph - N/A   Clear